ATLAS 5 CENTAUR DEB, 46657

Orbit data source: Space-Track

ATLAS 5 CENTAUR DEB, 46657 is space debris in HEO originally from a launch on Wed, 17 Oct 2018 UTC launched from the Air Force Eastern Test Range (AFETR). Debris objects in space refer to the collection of defunct objects orbiting the Earth. Examples of debris include non-operational satellites, rocket bodies, and fragments generated from explosions, collisions, or faulty payload assembly.

Loading next visibility...
Identifier
46657, 2018-079CK
Orbit
HEO
Country
Flag of USUS
Related business
Flag of USUnited Launch Alliance/Lockheed Martin (US)
Manufacturer
ULA Decatur
Mission
Spacecraft
Bus & Motor
Unknown
Mass
Unknown
Launch date (UTC)
2018-10-17 (7 years ago)
Launch vehicle
Unknown
Launch site
Air Force Eastern Test Range (AFETR)
Object type
Payload
Rocket body
Debris
Shape & HBR
Unknown shape, 1.1 m
Radar Cross Section
Medium (>0.1 m² and <1 m²)

Expand to show TLE details & history
Last TLE update: 1 day ago

TLE from 1 day ago
0 ATLAS 5 CENTAUR DEB
1 46657U 18079CK  25348.38071394 -.00000072  00000-0  00000-0 0  9990
2 46657  12.0847  38.5015 5508799 302.2347  15.8478  1.69961374 32181
Epoch: 2025-12-14T09:08Z
TLE epoch observation values (Epoch: 2025-12-14T09:08:13.684Z)
Latitude
0.00004°
Longitude
178.07031°
Altitude
9,623.99 km
Speed
6.031 km/s
True Right ascension
02h 33m 41s
True Declination
0° 00' 00"
Sunlit
Object was in daylight at epoch
Visualization orbit readout
Latitude
Unknown
Longitude
Unknown
Altitude
Unknown
Speed
Unknown
Apparent Right ascension
Unknown
Apparent Declination
Unknown
Sunlit
N/A
Visualization observer readout
Local Sidereal Time
11:32:37
Azimuth
Unknown
Elevation
Unknown
Doppler factor
Unknown
Orbital elements
Apogee altitude
39,624.394 km
Perigee altitude
6,943.759 km
Semi-major axis
29,662.214 km
Eccentricity
0.55088
Inclination
12.0847°
RAAN
38.5015°
Arg. of periapsis
302.2347°
True anomaly
57.77093°
Mean anomaly
15.8478°
Eccentric anomaly
33.07115°
Mean motion
0.42485 °/min
Orbital period
847.35 mins
BSTAR
0
Loading maneuver chart data...
Computing Atmospheric mass density...

Documentation

Showing up to 5 results
|